DW7857 Weather Reports


time (UTC)temp
F
wind
direction
speed
knots
gust
knots
rain 1hr
in
rain 24hr
in
rain mn
in
humidity
%
barometer
mb
20260504223603 54 27 1.7 2.6 0.00 0.00 0.00 90 1017.8
20260504222703 54 57 2.6 3.5 0.00 0.00 0.00 90 1018.0
20260504221803 54 61 1.7 3.5 0.00 0.00 0.00 90 1017.9
20260504220903 54 44 1.7 2.6 0.00 0.00 0.00 90 1017.9
20260504220003 55 68 1.7 3.5 0.00 0.00 0.00 86 1018.0
20260504215403 55 50 1.7 3.5 0.00 0.00 0.00 86 1018.1
20260504214503 55 33 1.7 2.6 0.00 0.00 0.00 86 1018.3
20260504213603 55 334 1.7 1.7 0.00 0.00 0.00 86 1018.1
20260504212703 55 59 1.7 1.7 0.00 0.00 0.00 85 1018.3
20260504211803 55 60 0.9 1.7 0.00 0.00 0.00 85 1018.1
20260504210903 55 62 0.9 1.7 0.00 0.00 0.00 84 1018.4
20260504210004 55 45 0.9 1.7 0.00 0.00 0.00 84 1018.0
20260504205403 55 48 1.7 1.7 0.00 0.00 0.00 84 1018.2
20260504204503 55 45 1.7 1.7 0.00 0.00 0.00 84 1018.3
20260504203603 55 25 1.7 1.7 0.00 0.00 0.00 84 1018.4
20260504202703 56 59 1.7 1.7 0.00 0.00 0.00 83 1018.2
20260504201803 56 43 1.7 1.7 0.00 0.00 0.00 83 1018.3
20260504200903 56 45 0.9 1.7 0.00 0.00 0.00 82 1018.0
20260504200003 56 45 0.9 1.7 0.00 0.00 0.00 82 1018.0
20260504195403 56 45 0.9 1.7 0.00 0.00 0.00 82 1017.9
20260504194503 57 71 0.9 1.7 0.00 0.00 0.00 82 1017.9
20260504193812 57 76 1.7 2.6 0.00 0.00 0.00 81 1017.8
20260504192703 57 65 1.7 2.6 0.00 0.00 0.00 81 1017.7
20260504191803 57 53 1.7 2.6 0.00 0.00 0.00 81 1017.5
20260504190903 57 106 1.7 1.7 0.00 0.00 0.00 81 1017.6
20260504190003 57 56 1.7 3.5 0.00 0.00 0.00 80 1017.6
20260504185403 58 58 1.7 3.5 0.00 0.00 0.00 80 1017.7
20260504184504 58 40 2.6 3.5 0.00 0.00 0.00 80 1017.4
20260504183603 58 73 3.5 5.2 0.00 0.00 0.00 79 1017.5
20260504182703 58 52 2.6 4.3 0.00 0.00 0.00 79 1017.8
20260504181803 58 61 3.5 5.2 0.00 0.00 0.00 78 1017.2
20260504180903 58 86 4.3 5.2 0.00 0.00 0.00 78 1017.4
20260504180214 59 64 3.5 5.2 0.00 0.00 0.00 77 1017.2
20260504175403 59 61 3.5 6.1 0.00 0.00 0.00 77 1017.3
20260504174503 59 52 3.5 6.1 0.00 0.00 0.00 77 1017.4
20260504173603 59 79 3.5 6.1 0.00 0.00 0.00 77 1017.3
20260504172703 59 33 3.5 3.5 0.00 0.00 0.00 76 1017.4
20260504171803 59 65 3.5 3.5 0.00 0.00 0.00 76 1017.2
20260504170903 59 3 3.5 7.0 0.00 0.00 0.00 77 1017.2
20260504170213 59 48 3.5 3.5 0.00 0.00 0.00 78 1017.2
20260504151113 67 219 4.3 5.2 0.00 0.00 0.00 53 1017.1
20260504140903 67 205 5.2 9.6 0.00 0.00 0.00 52 1017.0
20260504100212 64 84 2.6 3.5 0.00 0.00 0.00 60 1017.6
20260504081803 61 214 1.7 1.7 0.00 0.00 0.00 67 1017.2
20260504080903 61 247 0.9 1.7 0.00 0.00 0.00 68 1017.2
20260504070213 59 171 2.6 3.5 0.00 0.00 0.00 78 1016.9
20260504050003 51 225 0.0 0.9 0.00 0.00 0.00 94 1015.6
20260504045403 51 0 0.0 0.0 0.00 0.00 0.00 94 1015.5
20260504044503 51 225 0.0 0.9 0.00 0.00 0.00 94 1015.3
20260504043603 51 225 0.0 1.7 0.00 0.00 0.00 95 1015.4
20260504042703 52 225 0.0 0.9 0.00 0.00 0.00 95 1015.5
20260504041803 52 225 0.0 1.7 0.00 0.00 0.00 95 1015.3
20260504040903 52 184 0.9 1.7 0.00 0.00 0.00 95 1015.5
20260504040003 52 167 0.9 0.9 0.00 0.00 0.00 95 1015.4
20260504035403 52 204 0.9 1.7 0.00 0.00 0.00 95 1015.5
20260504034713 52 207 0.9 1.7 0.00 0.00 0.00 95 1015.3
20260504033812 52 202 0.9 1.7 0.00 0.00 0.00 95 1015.5
20260504032703 53 197 0.9 1.7 0.00 0.00 0.00 95 1015.5
20260504031803 53 198 0.9 1.7 0.00 0.00 0.00 95 1015.6
20260504030903 53 174 0.9 1.7 0.00 0.00 0.00 95 1015.6
20260504030003 53 176 0.9 1.7 0.00 0.00 0.00 95 1015.6
20260504025403 53 180 0.0 0.9 0.00 0.00 0.00 95 1015.6
20260504024503 53 0 0.0 0.0 0.00 0.00 0.00 95 1015.5
20260504023603 53 180 0.9 1.7 0.00 0.00 0.00 95 1015.5
20260504022703 53 134 0.0 1.7 0.00 0.00 0.00 94 1015.7
20260504021803 52 159 0.9 1.7 0.00 0.00 0.00 94 1015.3
20260504020903 52 143 0.9 1.7 0.00 0.00 0.00 94 1015.2
20260504020003 52 169 0.9 1.7 0.00 0.00 0.00 94 1015.5
20260504015403 52 180 0.0 1.7 0.00 0.00 0.00 94 1015.6
20260504014503 52 93 0.0 0.9 0.00 0.00 0.00 94 1015.4
20260504013814 52 116 0.0 0.9 0.00 0.00 0.00 94 1015.6
20260504012913 52 176 0.9 1.7 0.00 0.01 0.00 94 1015.4
20260504011803 52 195 0.9 1.7 0.00 0.01 0.00 94 1015.5
20260504010903 52 159 0.9 1.7 0.00 0.01 0.00 94 1015.3
20260504010004 52 199 1.7 2.6 0.00 0.01 0.00 94 1015.6
20260504005403 52 211 1.7 2.6 0.00 0.01 0.00 94 1015.5
20260504004503 52 188 1.7 2.6 0.00 0.01 0.00 94 1015.4
20260504003603 52 200 1.7 2.6 0.00 0.01 0.00 94 1015.2
20260504002703 52 204 1.7 2.6 0.00 0.02 0.00 94 1015.4
20260504001803 52 201 2.6 3.5 0.00 0.02 0.00 94 1015.4
20260504000903 52 205 1.7 3.5 0.00 0.02 0.00 93 1015.5
20260504000213 52 205 1.7 1.7 0.00 0.02 0.00 93 1015.3
20260503235403 53 208 1.7 1.7 0.00 0.07 0.00 93 1015.4
20260503234503 53 195 1.7 2.6 0.00 0.07 0.00 93 1015.3
20260503233603 53 195 1.7 1.7 0.00 0.07 0.00 93 1015.4
20260503232914 53 171 0.9 1.7 0.00 0.09 0.00 92 1015.3
20260503231803 53 186 0.9 1.7 0.00 0.09 0.00 92 1015.4
20260503230903 53 116 0.9 1.7 0.00 0.09 0.00 92 1015.5
20260503230003 53 144 1.7 3.5 0.00 0.09 0.00 92 1015.6
20260503225403 53 190 2.6 3.5 0.00 0.09 0.09 92 1015.4
20260503224503 53 115 1.7 3.5 0.00 0.09 0.09 92 1014.9